Regional Weather Roundup
Issued by NWS

Home | Current Version | Previous Version | Graphics & Text | Print | Product List | Glossary On
Versions: 1 2 3 4 5 6 7 8 9 10 11 12 13 14 15 16 17 18 19 20 21 22 23 24 25 26 27 28 29 30 31 32 33 34 35 36 37 38 39 40 41 42 43 44 45 46 47 48 49 50
000
ASUS45 KPSR 150900
RWRAZ

PRELIMINARY ARIZONA REGIONAL HOURLY WEATHER ROUNDUP
NATIONAL WEATHER SERVICE PHOENIX AZ
200 AM MST TUE APR 15 2014

NOTE: FAIR INDICATES FEW OR NO CLOUDS BELOW 12,000 FEET WITH NO
SIGNIFICANT WEATHER AND/OR OBSTRUCTIONS TO VISIBILITY.

AZZ001>003-036-151000-
NORTHWEST ARIZONA

CITY           SKY/WX    TMP DP  RH WIND       PRES   REMARKS
KINGMAN        CLEAR     45   3  17 E7        30.09F
$$

AZZ004>008-015-016-018-151000-
NORTH CENTRAL ARIZONA

CITY           SKY/WX    TMP DP  RH WIND       PRES   REMARKS
GRAND CANYON   PTCLDY    21   1  41 CALM      30.23F
WILLIAMS       CLEAR     28   1  31 SE10      30.29F WCI  19
PRESCOTT       CLEAR     39  10  30 CALM      30.16F
FLAGSTAFF      PTCLDY    21   5  50 CALM      30.23F
PAYSON         CLEAR     46   3  17 NE6       30.17F
PAGE           PTCLDY    44   2  17 S3        30.17F
$$

AZZ009>014-017-151000-
NORTHEAST ARIZONA

CITY           SKY/WX    TMP DP  RH WIND       PRES   REMARKS
WINSLOW        NOT AVBL
SAINT JOHNS    CLEAR     36   4  26 S6        30.20F WCI  31
WINDOW ROCK    CLEAR     20   0  41 CALM      30.24F
SHOW LOW       CLEAR     28   1  31 CALM      30.23F
$$

AZZ023-151000-
GREATER PHOENIX AREA

CITY           SKY/WX    TMP DP  RH WIND       PRES   REMARKS
PHOENIX        CLEAR     67  19  16 CALM      29.96F
LUKE AFB       NOT AVBL
DEER VALLEY    CLEAR     62   8  12 N5        29.98F
SCOTTSDALE     CLEAR     69   8   9 N6        29.99F
$$

AZZ027-028-151000-
SOUTHWEST MARICOPA COUNTY AND PINAL COUNTY

CITY           SKY/WX    TMP DP  RH WIND       PRES   REMARKS
CASA GRANDE    CLEAR     55  18  22 NW6       29.97F
$$

AZZ503-504-507>509-151000-
SOUTHEAST ARIZONA

CITY           SKY/WX    TMP DP  RH WIND       PRES   REMARKS
TUCSON         CLEAR     54   8  16 SE7       30.02F
DAVIS-MONTHAN  CLEAR     55   8  15 SE8       30.01F
NOGALES        CLEAR     48   5  17 S3        30.05F
SIERRA VISTA   CLEAR     57   0   9 CALM      30.10F
SAFFORD        CLEAR     58  16  19 E14       30.11S
$$

AZZ020-021-025-026-031-151000-
SOUTHWEST ARIZONA

CITY           SKY/WX    TMP DP  RH WIND       PRES   REMARKS
YUMA           NOT AVBL
$$

CAZ031-033-041-043-047-048-061-151000-
SOUTHERN CALIFORNIA

CITY           SKY/WX    TMP DP  RH WIND       PRES   REMARKS
DOWNTOWN L.A.  PTCLDY    60  53  77 CALM      30.00S
L.A. AIRPORT   MOCLDY    59  53  80 CALM      30.01S
SAN DIEGO      FOG       60  57  89 NW5       30.01F VSB 3/4
BURBANK        PTCLDY    64  37  36 E7        29.99F
ONTARIO        MOCLDY    65  37  35 CALM      30.00F
RIVERSIDE      PTCLDY    61  40  45 CALM      30.00F
PALM SPRINGS   PTCLDY    70  29  21 W3        29.98F
EL CENTRO NAS  CLEAR     60  21  22 SW8       29.93F
IMPERIAL       CLEAR     61  21  21 CALM      29.93F
BLYTHE         CLEAR     63   2   8 N6        29.96F
$$

NVZ020-UTZ003-151000-
SOUTHERN NEVADA-UTAH

CITY           SKY/WX    TMP DP  RH WIND       PRES   REMARKS
LAS VEGAS      NOT AVBL
SALT LAKE CITY PTCLDY    43  19  38 SE10      30.12F
$$

NMZ009-TXZ055-151000-
NEW MEXICO-WEST TEXAS

CITY           SKY/WX    TMP DP  RH WIND       PRES   REMARKS
ALBUQUERQUE    CLEAR     42  15  33 E5        30.22F
EL PASO        CLEAR     44  15  31 CALM      30.25F
$$


........................KEY........................
SKY/WX - SKY CONDITION/WEATHER
TMP    - TEMPERATURE IN FAHRENHEIT
DP     - DEW POINT IN FAHRENHEIT
RH     - RELATIVE HUMIDITY IN PERCENT
WIND   - DIRECTION AND SPEED IN MILES PER HOUR (MPH)
VRB    - VARIABLE WIND DIRECTION
PRES   - MEAN SEA LEVEL PRESSURE IN INCHES OF MERCURY
         F - FALLING PRESSURE   R - RISING PRESSURE
         S - STEADY PRESSURE
VSB    - VISIBILITY IN MILES
HX     - HEAT INDEX IN FAHRENHEIT
WCI    - WIND CHILL INDEX IN FAHRENHEIT
TC     - TEMPERATURE IN CELSIUS WHICH IS ALSO KNOWN AS
         TEMPERATURE IN CENTIGRADE
AFB    - AIR FORCE BASE
         LUKE AFB IS LUKE AIR FORCE BASE
         DAVIS-MONTHAN IS DAVIS-MONTHAN AIR FORCE BASE
NAS    - NAVAL AIR STATION
         EL CENTRO NAS IS EL CENTRO NAVAL AIR STATION
N/A    - NOT AVAILABLE



USA.gov is the U.S. government's official web portal to all federal, state and local government web resources and services.